Regional Weather Roundup
Issued by NWS

Home | Current Version | Previous Version | Graphics & Text | Print | Product List | Glossary On
Versions: 1 2 3 4 5 6 7 8 9 10 11 12 13 14 15 16 17 18 19 20 21 22 23 24 25 26 27 28 29 30 31 32 33 34 35 36 37 38 39 40 41 42 43 44
000
ASUS45 KSLC 021110
RWRUT

UTAH REGIONAL WEATHER ROUNDUP
NATIONAL WEATHER SERVICE SALT LAKE CITY UT
500 AM MDT WED SEP 02 2015

UTZ001>011-023>025-021200-

NORTHERN UTAH

CITY           SKY/WX    TMP DP  RH WIND       PRES   REMARKS
BRIGHAM CITY   PTCLDY    80  31  16 S22G29    29.95R
HILL AFB       MOCLDY    76  40  27 S15G22    30.00S
LOGAN          CLEAR     77  34  21 S15       29.95R
OGDEN          PTCLDY    77  39  25 S17       29.97R
PROVO AIRPORT  CLEAR     64  43  45 S7        30.05S
SALT LAKE CITY MOCLDY    77  41  27 S16       29.97R
VERNAL         CLEAR     56  44  64 W5        30.15R
WENDOVER       CLEAR     75  30  19 S12       29.93S
HEBER CITY     CLEAR     52  43  71 CALM      30.13S
WEST JORDAN    CLEAR     72  43  35 S18       30.02S

$$

UTZ012>022-026-027-021200-

SOUTHERN/CENTRAL UTAH

CITY           SKY/WX    TMP DP  RH WIND       PRES   REMARKS
BLANDING       PTCLDY    58  45  60 NE6       30.27S
BRYCE CANYON   CLEAR     46  41  82 VRB3      30.31F
CEDAR CITY     CLEAR     60  42  51 SW6       30.15S
DELTA          CLEAR     65  38  36 S9        30.07R
HANKSVILLE     CLEAR     55  52  88 MISG      30.11S
MILFORD        CLEAR     64  41  42 S12       30.09S
MOAB/CYNLANDS  CLEAR     65  53  65 SE7       30.08F
PRICE          CLEAR     57  44  62 N3        30.18S
ST GEORGE      SUNNY     77  46  33 E14       29.98F
KANAB          CLEAR     59  54  82 N7        30.20S

$$

REGIONAL REPORTS     COLORADO/ARIZONA

CITY           SKY/WX    TMP DP  RH WIND       PRES   REMARKS
CRAIG, CO      CLEAR     43  40  89 W5        30.23S
GRAND JUNCTION PTCLDY    64  49  57 E10       30.14S
RIFLE          CLEAR     52  49  89 E5        30.23S
MONTROSE       CLEAR     55  48  77 S3        30.23S
CORTEZ         CLEAR     53  46  77 E5        30.21F
PAGE, AZ       PTCLDY    71  51  49 CALM      30.08S
GRAND CANYON   CLEAR     49  47  93 CALM      30.27F
KINGMAN        CLEAR     72  53  51 SE10      30.02F
FLAGSTAFF      PTCLDY    49  47  93 CALM      30.31F

$$

REGIONAL REPORTS    NEVADA/IDAHO/WYOMING

CITY           SKY/WX    TMP DP  RH WIND       PRES   REMARKS
LAS VEGAS, NV  MOCLDY    84  55  36 SW8       29.86S
ELY            CLEAR     59  35  40 SW12      30.14S
ELKO           PTCLDY    55  26  32 E3        30.00S
POCATELLO, ID  CLEAR     74  36  25 S15G23    29.88S
BURLEY         CLEAR     56  41  57 SW10      29.88R
EVANSTON, WY   CLEAR     60  38  43 SW14      30.18S
ROCK SPRINGS   CLEAR     57  41  55 SE8       30.17S
KEMMERER       CLEAR     59  36  41 W3        30.19R

$$



USA.gov is the U.S. government's official web portal to all federal, state and local government web resources and services.